Location: ??????????
(48.5701°N, 37.7703°E)
Time: 19:48:35
(UTC+00:00)

Cosmos 1356 - Pass Details

Date: 14 July 2020
Orbit: 443 x 447 km, 81.1° (Epoch: 11 August)

Event Time Altitude Azimuth Distance (km) Brightness Sun altitude
Exits shadow 00:31:12 12° 202° (SSW) 1,434 5.4 -9.5°
Maximum altitude 00:34:17 64° 283° (WNW) 503 3.5 -9.2°
Drops below altitude 10° 00:37:43 10° 6° (N) 1,585 7.1 -8.8°
Sets 00:39:48 0° 10° (N) 2,461 8.2 -8.6°
